Time,TemperatureF,DewpointF,PressureIn,WindDirection,WindDirectionDegrees,WindSpeedMPH,WindSpeedGustMPH,Humidity,HourlyPrecipIn,Conditions,Clouds,dailyrainin,SoftwareType,DateUTC
2013-05-07 00:01:00,53.5,48.2,30.15,ENE,74,1.0,3.0,82,0.00,,---,0.00,VWS V14.01,2013-05-07 04:01:00,
2013-05-07 00:02:00,53.5,48.2,30.15,ENE,67,2.0,3.0,82,0.00,,---,0.00,VWS V14.01,2013-05-07 04:02:00,
2013-05-07 00:07:00,53.3,48.0,30.15,ESE,102,2.0,4.0,82,0.00,,---,0.00,VWS V14.01,2013-05-07 04:07:00,
2013-05-07 00:12:00,53.2,47.9,30.15,East,94,2.0,4.0,82,0.00,,---,0.00,VWS V14.01,2013-05-07 04:12:00,
2013-05-07 00:17:00,53.2,48.2,30.15,East,94,2.0,6.0,83,0.00,,---,0.00,VWS V14.01,2013-05-07 04:17:00,
2013-05-07 00:22:00,53.0,48.0,30.15,East,94,3.0,6.0,83,0.00,,---,0.00,VWS V14.01,2013-05-07 04:22:00,
2013-05-07 00:27:00,52.8,47.8,30.15,ESE,120,2.0,6.0,83,0.00,,---,0.00,VWS V14.01,2013-05-07 04:27:00,
2013-05-07 00:32:00,52.7,47.7,30.14,ESE,108,0.0,6.0,83,0.00,,---,0.00,VWS V14.01,2013-05-07 04:32:00,
2013-05-07 00:37:00,52.5,47.8,30.14,ESE,102,2.0,3.0,84,0.00,,---,0.00,VWS V14.01,2013-05-07 04:37:00,
2013-05-07 00:42:00,52.5,47.8,30.14,East,94,2.0,5.0,84,0.00,,---,0.00,VWS V14.01,2013-05-07 04:42:00,
2013-05-07 00:47:00,52.4,47.7,30.14,East,86,3.0,5.0,84,0.00,,---,0.00,VWS V14.01,2013-05-07 04:47:00,
2013-05-07 00:52:00,52.2,47.5,30.14,ENE,70,2.0,5.0,84,0.00,,---,0.00,VWS V14.01,2013-05-07 04:52:00,
2013-05-07 00:57:00,52.1,47.7,30.14,ENE,63,3.0,5.0,85,0.00,,---,0.00,VWS V14.01,2013-05-07 04:57:00,
2013-05-07 01:02:00,51.9,47.5,30.14,East,81,2.0,5.0,85,0.00,,---,0.00,VWS V14.01,2013-05-07 05:02:00,
2013-05-07 01:07:00,51.7,47.7,30.14,NE,53,0.0,4.0,86,0.00,,---,0.00,VWS V14.01,2013-05-07 05:07:00,
2013-05-07 01:12:00,51.7,47.7,30.14,East,84,2.0,4.0,86,0.00,,---,0.00,VWS V14.01,2013-05-07 05:12:00,
2013-05-07 01:17:00,51.6,47.6,30.13,SE,133,1.0,4.0,86,0.00,,---,0.00,VWS V14.01,2013-05-07 05:17:00,
2013-05-07 01:22:00,51.5,47.8,30.13,ENE,73,2.0,4.0,87,0.00,,---,0.00,VWS V14.01,2013-05-07 05:22:00,
2013-05-07 01:27:00,51.4,47.7,30.13,East,101,2.0,5.0,87,0.00,,---,0.00,VWS V14.01,2013-05-07 05:27:00,
2013-05-07 01:32:00,51.3,47.6,30.13,East,101,0.0,5.0,87,0.00,,---,0.00,VWS V14.01,2013-05-07 05:32:00,
2013-05-07 01:37:00,51.3,47.6,30.13,East,100,1.0,4.0,87,0.00,,---,0.00,VWS V14.01,2013-05-07 05:37:00,
2013-05-07 01:42:00,51.2,47.5,30.13,East,93,3.0,4.0,87,0.00,,---,0.00,VWS V14.01,2013-05-07 05:42:00,
2013-05-07 01:47:00,51.1,47.7,30.13,ESE,111,2.0,4.0,88,0.00,,---,0.00,VWS V14.01,2013-05-07 05:47:00,
2013-05-07 01:52:00,51.0,47.6,30.13,East,99,1.0,4.0,88,0.00,,---,0.00,VWS V14.01,2013-05-07 05:52:00,
2013-05-07 01:57:00,50.8,47.4,30.13,ESE,111,0.0,4.0,88,0.00,,---,0.00,VWS V14.01,2013-05-07 05:57:00,
2013-05-07 02:02:00,50.8,47.7,30.13,ESE,105,1.0,4.0,89,0.00,,---,0.00,VWS V14.01,2013-05-07 06:02:00,
2013-05-07 02:07:00,50.7,47.6,30.13,SE,139,1.0,3.0,89,0.00,,---,0.00,VWS V14.01,2013-05-07 06:07:00,
2013-05-07 02:12:00,50.6,47.5,30.13,SSE,148,1.0,3.0,89,0.00,,---,0.00,VWS V14.01,2013-05-07 06:12:00,
2013-05-07 02:17:00,50.5,47.4,30.13,South,171,2.0,3.0,89,0.00,,---,0.00,VWS V14.01,2013-05-07 06:17:00,
2013-05-07 02:22:00,50.3,47.2,30.13,SE,139,1.0,3.0,89,0.00,,---,0.00,VWS V14.01,2013-05-07 06:22:00,
2013-05-07 02:27:00,50.4,47.6,30.12,ESE,112,2.0,3.0,90,0.00,,---,0.00,VWS V14.01,2013-05-07 06:27:00,
2013-05-07 02:32:00,50.7,47.9,30.12,ESE,105,1.0,3.0,90,0.00,,---,0.00,VWS V14.01,2013-05-07 06:32:00,
2013-05-07 02:37:00,51.0,48.2,30.12,South,188,3.0,5.0,90,0.00,,---,0.00,VWS V14.01,2013-05-07 06:37:00,
2013-05-07 02:42:00,51.2,48.4,30.12,East,96,0.0,5.0,90,0.00,,---,0.00,VWS V14.01,2013-05-07 06:42:00,
2013-05-07 02:47:00,51.3,48.5,30.12,ENE,73,2.0,5.0,90,0.00,,---,0.00,VWS V14.01,2013-05-07 06:47:00,
2013-05-07 02:52:00,51.2,48.1,30.12,East,79,2.0,5.0,89,0.00,,---,0.00,VWS V14.01,2013-05-07 06:52:00,
2013-05-07 02:57:00,51.3,48.2,30.12,ENE,75,2.0,5.0,89,0.00,,---,0.00,VWS V14.01,2013-05-07 06:57:00,
2013-05-07 03:02:00,51.3,48.5,30.12,ESE,105,5.0,6.0,90,0.00,,---,0.00,VWS V14.01,2013-05-07 07:02:00,
2013-05-07 03:07:00,51.4,48.6,30.11,East,99,2.0,7.0,90,0.00,,---,0.00,VWS V14.01,2013-05-07 07:07:00,
2013-05-07 03:12:00,51.5,48.4,30.11,East,101,2.0,7.0,89,0.00,,---,0.00,VWS V14.01,2013-05-07 07:12:00,
2013-05-07 03:17:00,51.5,48.4,30.11,East,99,1.0,7.0,89,0.00,,---,0.00,VWS V14.01,2013-05-07 07:17:00,
2013-05-07 03:22:00,51.5,48.4,30.11,SSE,150,1.0,7.0,89,0.00,,---,0.00,VWS V14.01,2013-05-07 07:22:00,
2013-05-07 03:27:00,51.4,48.3,30.11,SW,226,0.0,7.0,89,0.00,,---,0.00,VWS V14.01,2013-05-07 07:27:00,
2013-05-07 03:32:00,51.5,48.7,30.11,East,85,3.0,7.0,90,0.00,,---,0.00,VWS V14.01,2013-05-07 07:32:00,
2013-05-07 03:37:00,51.4,48.6,30.11,East,86,0.0,3.0,90,0.00,,---,0.00,VWS V14.01,2013-05-07 07:37:00,
2013-05-07 03:42:00,51.5,48.7,30.11,ESE,104,1.0,3.0,90,0.00,,---,0.00,VWS V14.01,2013-05-07 07:42:00,
2013-05-07 03:47:00,51.5,48.7,30.11,East,94,0.0,3.0,90,0.00,,---,0.00,VWS V14.01,2013-05-07 07:47:00,
2013-05-07 03:53:00,51.5,48.7,30.11,ENE,64,2.0,5.0,90,0.00,,---,0.00,VWS V14.01,2013-05-07 07:53:00,
2013-05-07 03:58:00,51.6,48.8,30.11,East,98,2.0,5.0,90,0.00,,---,0.00,VWS V14.01,2013-05-07 07:58:00,
2013-05-07 04:03:00,51.5,48.7,30.11,ENE,61,2.0,6.0,90,0.00,,---,0.00,VWS V14.01,2013-05-07 08:03:00,
2013-05-07 04:08:00,51.5,48.7,30.11,East,79,5.0,6.0,90,0.00,,---,0.00,VWS V14.01,2013-05-07 08:08:00,
2013-05-07 04:13:00,51.5,48.7,30.11,NNE,27,1.0,6.0,90,0.00,,---,0.00,VWS V14.01,2013-05-07 08:13:00,
2013-05-07 04:18:00,51.6,48.8,30.11,NE,47,1.0,6.0,90,0.00,,---,0.00,VWS V14.01,2013-05-07 08:18:00,
2013-05-07 04:23:00,51.6,48.8,30.11,ENE,67,0.0,6.0,90,0.00,,---,0.00,VWS V14.01,2013-05-07 08:23:00,
2013-05-07 04:28:00,51.6,48.8,30.11,ENE,71,0.0,6.0,90,0.00,,---,0.00,VWS V14.01,2013-05-07 08:28:00,
2013-05-07 04:33:00,51.4,48.6,30.11,East,79,1.0,6.0,90,0.00,,---,0.00,VWS V14.01,2013-05-07 08:33:00,
2013-05-07 04:38:00,51.3,48.5,30.11,East,91,0.0,2.0,90,0.00,,---,0.00,VWS V14.01,2013-05-07 08:38:00,
2013-05-07 04:43:00,51.0,48.2,30.11,East,91,0.0,2.0,90,0.00,,---,0.00,VWS V14.01,2013-05-07 08:43:00,
2013-05-07 04:48:00,50.8,48.0,30.11,ENE,72,2.0,3.0,90,0.00,,---,0.00,VWS V14.01,2013-05-07 08:48:00,
2013-05-07 04:53:00,50.6,47.8,30.11,ESE,102,1.0,3.0,90,0.00,,---,0.00,VWS V14.01,2013-05-07 08:53:00,
2013-05-07 04:58:00,50.3,47.5,30.11,SE,143,1.0,3.0,90,0.00,,---,0.00,VWS V14.01,2013-05-07 08:58:00,
2013-05-07 05:03:00,50.1,47.3,30.11,ESE,111,0.0,3.0,90,0.00,,---,0.00,VWS V14.01,2013-05-07 09:03:00,
2013-05-07 05:08:00,49.8,47.0,30.11,ESE,115,0.0,2.0,90,0.00,,---,0.00,VWS V14.01,2013-05-07 09:08:00,
2013-05-07 05:13:00,49.6,46.8,30.11,ESE,120,1.0,3.0,90,0.00,,---,0.00,VWS V14.01,2013-05-07 09:13:00,
2013-05-07 05:18:00,49.5,47.0,30.11,East,99,1.0,3.0,91,0.00,,---,0.00,VWS V14.01,2013-05-07 09:18:00,
2013-05-07 05:23:00,49.5,47.0,30.11,SSE,153,1.0,4.0,91,0.00,,---,0.00,VWS V14.01,2013-05-07 09:23:00,
2013-05-07 05:28:00,49.4,46.9,30.11,ESE,122,1.0,4.0,91,0.00,,---,0.00,VWS V14.01,2013-05-07 09:28:00,
2013-05-07 05:33:00,49.2,46.7,30.12,SE,146,1.0,4.0,91,0.00,,---,0.00,VWS V14.01,2013-05-07 09:33:00,
2013-05-07 05:38:00,48.9,46.4,30.12,SE,135,0.0,1.0,91,0.00,,---,0.00,VWS V14.01,2013-05-07 09:38:00,
2013-05-07 05:43:00,48.7,46.2,30.12,SE,136,1.0,3.0,91,0.00,,---,0.00,VWS V14.01,2013-05-07 09:43:00,
2013-05-07 05:48:00,48.7,46.2,30.12,ESE,106,1.0,3.0,91,0.00,,---,0.00,VWS V14.01,2013-05-07 09:48:00,
2013-05-07 05:53:00,48.6,46.1,30.12,ESE,105,1.0,3.0,91,0.00,,---,0.00,VWS V14.01,2013-05-07 09:53:00,
2013-05-07 05:58:00,48.6,46.1,30.11,ESE,108,1.0,5.0,91,0.00,,---,0.00,VWS V14.01,2013-05-07 09:58:00,
2013-05-07 06:03:00,48.5,46.0,30.11,ESE,116,2.0,2.0,91,0.00,,---,0.00,VWS V14.01,2013-05-07 10:03:00,
2013-05-07 06:08:00,48.4,45.9,30.12,SE,132,1.0,2.0,91,0.00,,---,0.00,VWS V14.01,2013-05-07 10:08:00,
2013-05-07 06:13:00,48.2,45.7,30.12,SE,134,1.0,3.0,91,0.00,,---,0.00,VWS V14.01,2013-05-07 10:13:00,
2013-05-07 06:18:00,48.0,45.5,30.12,SE,133,1.0,3.0,91,0.00,,---,0.00,VWS V14.01,2013-05-07 10:18:00,
2013-05-07 06:23:00,48.0,45.5,30.12,SSE,148,0.0,3.0,91,0.00,,---,0.00,VWS V14.01,2013-05-07 10:23:00,
2013-05-07 06:28:00,48.0,45.5,30.12,ESE,117,1.0,3.0,91,0.00,,---,0.00,VWS V14.01,2013-05-07 10:28:00,
2013-05-07 06:33:00,48.2,45.7,30.12,ESE,105,1.0,2.0,91,0.00,,---,0.00,VWS V14.01,2013-05-07 10:33:00,
2013-05-07 06:38:00,48.7,46.2,30.12,ESE,103,0.0,2.0,91,0.00,,---,0.00,VWS V14.01,2013-05-07 10:38:00,
2013-05-07 06:43:00,49.1,46.6,30.12,East,99,0.0,2.0,91,0.00,,---,0.00,VWS V14.01,2013-05-07 10:43:00,
2013-05-07 06:48:00,49.7,47.2,30.12,SE,127,0.0,2.0,91,0.00,,---,0.00,VWS V14.01,2013-05-07 10:48:00,
2013-05-07 06:53:00,50.2,47.4,30.12,SE,127,0.0,2.0,90,0.00,,---,0.00,VWS V14.01,2013-05-07 10:53:00,
2013-05-07 06:58:00,50.4,47.3,30.12,South,173,0.0,2.0,89,0.00,,---,0.00,VWS V14.01,2013-05-07 10:58:00,
2013-05-07 07:03:00,50.4,47.0,30.13,SSE,148,2.0,2.0,88,0.00,,---,0.00,VWS V14.01,2013-05-07 11:03:00,
2013-05-07 07:08:00,50.6,47.2,30.13,SSW,211,1.0,2.0,88,0.00,,---,0.00,VWS V14.01,2013-05-07 11:08:00,
2013-05-07 07:13:00,50.9,47.2,30.13,SSE,163,0.0,2.0,87,0.00,,---,0.00,VWS V14.01,2013-05-07 11:13:00,
2013-05-07 07:18:00,51.4,47.4,30.12,ESE,118,1.0,2.0,86,0.00,,---,0.00,VWS V14.01,2013-05-07 11:18:00,
2013-05-07 07:23:00,52.2,48.5,30.12,ESE,111,0.0,2.0,87,0.00,,---,0.00,VWS V14.01,2013-05-07 11:23:00,
2013-05-07 07:28:00,52.8,47.8,30.12,ESE,116,2.0,4.0,83,0.00,,---,0.00,VWS V14.01,2013-05-07 11:28:00,
2013-05-07 07:34:00,52.9,47.9,30.13,NE,54,0.0,0.0,83,0.00,,---,0.00,VWS V14.01,2013-05-07 11:34:00,
2013-05-07 07:39:00,53.0,47.3,30.13,ESE,105,1.0,3.0,81,0.00,,---,0.00,VWS V14.01,2013-05-07 11:39:00,
2013-05-07 07:44:00,53.2,47.5,30.13,East,100,1.0,3.0,81,0.00,,---,0.00,VWS V14.01,2013-05-07 11:44:00,
2013-05-07 07:49:00,53.2,47.5,30.13,ESE,114,2.0,3.0,81,0.00,,---,0.00,VWS V14.01,2013-05-07 11:49:00,
2013-05-07 07:54:00,53.3,47.6,30.13,ENE,63,1.0,3.0,81,0.00,,---,0.00,VWS V14.01,2013-05-07 11:54:00,
2013-05-07 07:59:00,53.8,48.1,30.13,East,79,3.0,4.0,81,0.00,,---,0.00,VWS V14.01,2013-05-07 11:59:00,
2013-05-07 08:04:00,53.8,47.8,30.13,East,79,1.0,2.0,80,0.00,,---,0.00,VWS V14.01,2013-05-07 12:04:00,
2013-05-07 08:09:00,54.4,48.4,30.13,East,83,0.0,2.0,80,0.00,,---,0.00,VWS V14.01,2013-05-07 12:09:00,
2013-05-07 08:14:00,54.8,48.4,30.13,NNE,22,2.0,3.0,79,0.00,,---,0.00,VWS V14.01,2013-05-07 12:14:00,
2013-05-07 08:19:00,55.6,49.2,30.12,NNW,346,1.0,3.0,79,0.00,,---,0.00,VWS V14.01,2013-05-07 12:19:00,
2013-05-07 08:24:00,56.2,48.4,30.12,East,100,4.0,6.0,75,0.00,,---,0.00,VWS V14.01,2013-05-07 12:24:00,
2013-05-07 08:29:00,56.5,48.3,30.12,ESE,108,3.0,8.0,74,0.00,,---,0.00,VWS V14.01,2013-05-07 12:29:00,
2013-05-07 08:34:00,56.7,47.8,30.12,ENE,57,2.0,4.0,72,0.00,,---,0.00,VWS V14.01,2013-05-07 12:34:00,
2013-05-07 08:39:00,57.3,48.0,30.13,ESE,110,1.0,6.0,71,0.00,,---,0.00,VWS V14.01,2013-05-07 12:39:00,
2013-05-07 08:44:00,57.7,48.0,30.13,East,91,2.0,6.0,70,0.00,,---,0.00,VWS V14.01,2013-05-07 12:44:00,
2013-05-07 08:49:00,58.2,47.7,30.13,ENE,74,4.0,10.0,68,0.00,,---,0.00,VWS V14.01,2013-05-07 12:49:00,
2013-05-07 08:54:00,58.4,48.3,30.13,ENE,75,3.0,10.0,69,0.00,,---,0.00,VWS V14.01,2013-05-07 12:54:00,
2013-05-07 08:59:00,59.0,48.5,30.13,East,82,5.0,10.0,68,0.00,,---,0.00,VWS V14.01,2013-05-07 12:59:00,
2013-05-07 09:04:00,59.3,48.8,30.13,ENE,73,4.0,5.0,68,0.00,,---,0.00,VWS V14.01,2013-05-07 13:04:00,
2013-05-07 09:09:00,59.3,48.4,30.13,ENE,57,4.0,7.0,67,0.00,,---,0.00,VWS V14.01,2013-05-07 13:09:00,
2013-05-07 09:14:00,59.6,49.0,30.13,NE,36,0.0,7.0,68,0.00,,---,0.00,VWS V14.01,2013-05-07 13:14:00,
2013-05-07 09:19:00,60.2,48.8,30.14,ESE,117,1.0,7.0,66,0.00,,---,0.00,VWS V14.01,2013-05-07 13:19:00,
2013-05-07 09:24:00,60.7,48.9,30.13,ESE,108,3.0,7.0,65,0.00,,---,0.00,VWS V14.01,2013-05-07 13:24:00,
2013-05-07 09:29:00,61.3,48.6,30.13,ENE,57,2.0,7.0,63,0.00,,---,0.00,VWS V14.01,2013-05-07 13:29:00,
2013-05-07 09:34:00,61.6,49.7,30.13,ENE,64,5.0,6.0,65,0.00,,---,0.00,VWS V14.01,2013-05-07 13:34:00,
2013-05-07 09:39:00,61.9,49.2,30.13,East,89,4.0,6.0,63,0.00,,---,0.00,VWS V14.01,2013-05-07 13:39:00,
2013-05-07 09:44:00,62.7,50.4,30.12,East,91,2.0,7.0,64,0.00,,---,0.00,VWS V14.01,2013-05-07 13:44:00,
2013-05-07 09:49:00,62.9,50.1,30.12,ESE,112,1.0,8.0,63,0.00,,---,0.00,VWS V14.01,2013-05-07 13:49:00,
2013-05-07 09:54:00,63.3,50.1,30.12,NE,47,1.0,8.0,62,0.00,,---,0.00,VWS V14.01,2013-05-07 13:54:00,
2013-05-07 09:59:00,63.7,50.0,30.12,NE,53,4.0,9.0,61,0.00,,---,0.00,VWS V14.01,2013-05-07 13:59:00,
2013-05-07 10:04:00,63.8,50.5,30.12,ESE,106,2.0,8.0,62,0.00,,---,0.00,VWS V14.01,2013-05-07 14:04:00,
2013-05-07 10:09:00,64.1,50.4,30.12,ESE,112,1.0,9.0,61,0.00,,---,0.00,VWS V14.01,2013-05-07 14:09:00,
2013-05-07 10:14:00,65.0,51.2,30.12,East,100,3.0,9.0,61,0.00,,---,0.00,VWS V14.01,2013-05-07 14:14:00,
2013-05-07 10:19:00,65.0,51.2,30.12,ENE,58,2.0,12.0,61,0.00,,---,0.00,VWS V14.01,2013-05-07 14:19:00,
2013-05-07 10:24:00,65.0,51.7,30.12,ESE,117,3.0,15.0,62,0.00,,---,0.00,VWS V14.01,2013-05-07 14:24:00,
2013-05-07 10:29:00,65.0,50.8,30.12,SE,139,8.0,15.0,60,0.00,,---,0.00,VWS V14.01,2013-05-07 14:29:00,
2013-05-07 10:34:00,65.3,52.0,30.12,WSW,243,2.0,6.0,62,0.00,,---,0.00,VWS V14.01,2013-05-07 14:34:00,
2013-05-07 10:39:00,66.0,52.2,30.12,SE,146,7.0,10.0,61,0.00,,---,0.00,VWS V14.01,2013-05-07 14:39:00,
2013-05-07 10:44:00,65.8,52.0,30.12,ESE,108,9.0,12.0,61,0.00,,---,0.00,VWS V14.01,2013-05-07 14:44:00,
2013-05-07 10:50:00,66.0,52.6,30.12,SE,134,6.0,12.0,62,0.00,,---,0.00,VWS V14.01,2013-05-07 14:50:00,
2013-05-07 10:55:00,66.3,52.5,30.12,SE,134,1.0,12.0,61,0.00,,---,0.00,VWS V14.01,2013-05-07 14:55:00,
2013-05-07 11:00:00,67.0,52.2,30.12,South,174,7.0,12.0,59,0.00,,---,0.00,VWS V14.01,2013-05-07 15:00:00,
2013-05-07 11:05:00,67.5,53.1,30.12,ENE,67,3.0,5.0,60,0.00,,---,0.00,VWS V14.01,2013-05-07 15:05:00,
2013-05-07 11:10:00,67.1,52.8,30.12,ENE,65,11.0,11.0,60,0.00,,---,0.00,VWS V14.01,2013-05-07 15:10:00,
2013-05-07 11:15:00,67.0,52.7,30.12,NE,34,5.0,11.0,60,0.00,,---,0.00,VWS V14.01,2013-05-07 15:15:00,
2013-05-07 11:20:00,67.3,54.3,30.12,NE,56,3.0,12.0,63,0.00,,---,0.00,VWS V14.01,2013-05-07 15:20:00,
2013-05-07 11:25:00,67.7,52.9,30.11,SE,126,2.0,12.0,59,0.00,,---,0.00,VWS V14.01,2013-05-07 15:25:00,
2013-05-07 11:30:00,67.6,52.8,30.11,East,90,6.0,12.0,59,0.00,,---,0.00,VWS V14.01,2013-05-07 15:30:00,
2013-05-07 11:35:00,68.0,54.1,30.11,East,98,7.0,7.0,61,0.00,,---,0.00,VWS V14.01,2013-05-07 15:35:00,
2013-05-07 11:40:00,68.1,52.8,30.11,NE,52,6.0,11.0,58,0.00,,---,0.00,VWS V14.01,2013-05-07 15:40:00,
2013-05-07 11:45:00,67.9,53.5,30.11,ESE,105,4.0,11.0,60,0.00,,---,0.00,VWS V14.01,2013-05-07 15:45:00,
2013-05-07 11:50:00,68.2,54.2,30.11,South,179,6.0,11.0,61,0.00,,---,0.00,VWS V14.01,2013-05-07 15:50:00,
2013-05-07 11:55:00,68.7,53.8,30.11,NE,50,1.0,11.0,59,0.00,,---,0.00,VWS V14.01,2013-05-07 15:55:00,
2013-05-07 12:00:00,68.7,53.8,30.11,ESE,108,5.0,11.0,59,0.00,,---,0.00,VWS V14.01,2013-05-07 16:00:00,
2013-05-07 12:05:00,68.8,54.4,30.11,NE,34,1.0,6.0,60,0.00,,---,0.00,VWS V14.01,2013-05-07 16:05:00,
2013-05-07 12:10:00,69.5,54.6,30.11,SE,134,11.0,11.0,59,0.00,,---,0.00,VWS V14.01,2013-05-07 16:10:00,
2013-05-07 12:15:00,69.5,54.1,30.10,East,79,3.0,11.0,58,0.00,,---,0.00,VWS V14.01,2013-05-07 16:15:00,
2013-05-07 12:20:00,69.6,54.7,30.10,NE,34,4.0,11.0,59,0.00,,---,0.00,VWS V14.01,2013-05-07 16:20:00,
2013-05-07 12:25:00,69.9,54.5,30.10,NE,56,2.0,11.0,58,0.00,,---,0.00,VWS V14.01,2013-05-07 16:25:00,
2013-05-07 12:30:00,69.9,54.5,30.10,NNW,342,2.0,12.0,58,0.00,,---,0.00,VWS V14.01,2013-05-07 16:30:00,
2013-05-07 12:35:00,69.4,54.0,30.10,SSE,149,9.0,14.0,58,0.00,,---,0.00,VWS V14.01,2013-05-07 16:35:00,
2013-05-07 12:40:00,69.5,54.6,30.09,SE,138,4.0,14.0,59,0.00,,---,0.00,VWS V14.01,2013-05-07 16:40:00,
2013-05-07 12:45:00,70.2,55.2,30.09,NE,48,9.0,14.0,59,0.00,,---,0.00,VWS V14.01,2013-05-07 16:45:00,
2013-05-07 12:50:00,69.4,54.0,30.09,ESE,106,4.0,14.0,58,0.00,,---,0.00,VWS V14.01,2013-05-07 16:50:00,
2013-05-07 12:55:00,68.8,54.4,30.09,ESE,103,5.0,14.0,60,0.00,,---,0.00,VWS V14.01,2013-05-07 16:55:00,
2013-05-07 13:00:00,69.2,54.7,30.09,East,91,4.0,14.0,60,0.00,,---,0.00,VWS V14.01,2013-05-07 17:00:00,
2013-05-07 13:05:00,69.1,55.1,30.09,SSE,149,3.0,8.0,61,0.00,,---,0.00,VWS V14.01,2013-05-07 17:05:00,
2013-05-07 13:10:00,70.0,55.0,30.09,SE,144,4.0,9.0,59,0.00,,---,0.00,VWS V14.01,2013-05-07 17:10:00,
2013-05-07 13:15:00,70.2,54.8,30.09,SE,124,4.0,11.0,58,0.00,,---,0.00,VWS V14.01,2013-05-07 17:15:00,
2013-05-07 13:20:00,70.4,54.5,30.09,ESE,118,2.0,11.0,57,0.00,,---,0.00,VWS V14.01,2013-05-07 17:20:00,
2013-05-07 13:25:00,70.2,54.3,30.08,WNW,285,3.0,13.0,57,0.00,,---,0.00,VWS V14.01,2013-05-07 17:25:00,
2013-05-07 13:30:00,70.3,54.4,30.08,ESE,104,8.0,14.0,57,0.00,,---,0.00,VWS V14.01,2013-05-07 17:30:00,
2013-05-07 13:35:00,70.1,54.7,30.08,SE,124,8.0,8.0,58,0.00,,---,0.00,VWS V14.01,2013-05-07 17:35:00,
2013-05-07 13:40:00,70.0,54.6,30.08,NE,56,3.0,14.0,58,0.00,,---,0.00,VWS V14.01,2013-05-07 17:40:00,
2013-05-07 13:45:00,70.2,54.8,30.08,ENE,72,5.0,14.0,58,0.00,,---,0.00,VWS V14.01,2013-05-07 17:45:00,
2013-05-07 13:50:00,71.1,56.1,30.08,ESE,108,6.0,14.0,59,0.00,,---,0.00,VWS V14.01,2013-05-07 17:50:00,
2013-05-07 13:55:00,70.7,54.7,30.08,East,84,4.0,14.0,57,0.00,,---,0.00,VWS V14.01,2013-05-07 17:55:00,
2013-05-07 14:00:00,70.0,54.6,30.08,SE,132,2.0,14.0,58,0.00,,---,0.00,VWS V14.01,2013-05-07 18:00:00,
2013-05-07 14:05:00,69.9,54.9,30.08,NE,34,2.0,10.0,59,0.00,,---,0.00,VWS V14.01,2013-05-07 18:05:00,
2013-05-07 14:10:00,69.8,54.8,30.08,ESE,122,2.0,10.0,59,0.00,,---,0.00,VWS V14.01,2013-05-07 18:10:00,
2013-05-07 14:15:00,69.8,55.3,30.08,SE,129,9.0,11.0,60,0.00,,---,0.00,VWS V14.01,2013-05-07 18:15:00,
2013-05-07 14:20:00,70.0,55.0,30.07,ESE,123,5.0,11.0,59,0.00,,---,0.00,VWS V14.01,2013-05-07 18:20:00,
2013-05-07 14:25:00,70.2,54.8,30.07,SE,134,2.0,12.0,58,0.00,,---,0.00,VWS V14.01,2013-05-07 18:25:00,
2013-05-07 14:30:00,70.4,54.5,30.07,SSE,153,7.0,13.0,57,0.00,,---,0.00,VWS V14.01,2013-05-07 18:30:00,
2013-05-07 14:35:00,71.2,55.7,30.07,SSE,166,10.0,13.0,58,0.00,,---,0.00,VWS V14.01,2013-05-07 18:35:00,
2013-05-07 14:40:00,70.9,54.9,30.07,SE,139,6.0,16.0,57,0.00,,---,0.00,VWS V14.01,2013-05-07 18:40:00,
2013-05-07 14:45:00,71.2,56.6,30.07,South,173,6.0,16.0,60,0.00,,---,0.00,VWS V14.01,2013-05-07 18:45:00,
2013-05-07 14:51:00,71.6,56.1,30.06,NE,56,2.0,16.0,58,0.00,,---,0.00,VWS V14.01,2013-05-07 18:51:00,
2013-05-07 14:56:00,71.7,56.2,30.06,East,96,4.0,16.0,58,0.00,,---,0.00,VWS V14.01,2013-05-07 18:56:00,
2013-05-07 15:01:00,71.6,55.6,30.06,East,80,8.0,16.0,57,0.00,,---,0.00,VWS V14.01,2013-05-07 19:01:00,
2013-05-07 15:06:00,71.5,55.0,30.06,SSE,163,16.0,16.0,56,0.00,,---,0.00,VWS V14.01,2013-05-07 19:06:00,
2013-05-07 15:11:00,71.2,55.2,30.06,ESE,103,5.0,16.0,57,0.00,,---,0.00,VWS V14.01,2013-05-07 19:11:00,
2013-05-07 15:16:00,70.9,55.4,30.06,ENE,70,3.0,16.0,58,0.00,,---,0.00,VWS V14.01,2013-05-07 19:16:00,
2013-05-07 15:21:00,70.9,56.3,30.06,East,96,7.0,16.0,60,0.00,,---,0.00,VWS V14.01,2013-05-07 19:21:00,
2013-05-07 15:26:00,71.4,56.3,30.05,SE,136,2.0,16.0,59,0.00,,---,0.00,VWS V14.01,2013-05-07 19:26:00,
2013-05-07 15:31:00,71.4,55.9,30.05,SW,235,3.0,16.0,58,0.00,,---,0.00,VWS V14.01,2013-05-07 19:31:00,
2013-05-07 15:36:00,71.6,56.1,30.05,East,98,10.0,12.0,58,0.00,,---,0.00,VWS V14.01,2013-05-07 19:36:00,
2013-05-07 15:41:00,70.8,55.3,30.05,ENE,73,6.0,12.0,58,0.00,,---,0.00,VWS V14.01,2013-05-07 19:41:00,
2013-05-07 15:46:00,71.2,55.2,30.05,ESE,102,5.0,12.0,57,0.00,,---,0.00,VWS V14.01,2013-05-07 19:46:00,
2013-05-07 15:51:00,70.9,54.9,30.05,SW,226,4.0,14.0,57,0.00,,---,0.00,VWS V14.01,2013-05-07 19:51:00,
2013-05-07 15:56:00,70.5,54.5,30.05,SSE,150,4.0,15.0,57,0.00,,---,0.00,VWS V14.01,2013-05-07 19:56:00,
2013-05-07 16:01:00,70.3,54.4,30.05,East,94,10.0,15.0,57,0.00,,---,0.00,VWS V14.01,2013-05-07 20:01:00,
2013-05-07 16:06:00,70.2,54.8,30.05,South,176,1.0,7.0,58,0.00,,---,0.00,VWS V14.01,2013-05-07 20:06:00,
2013-05-07 16:11:00,70.2,54.3,30.05,SE,141,3.0,12.0,57,0.00,,---,0.00,VWS V14.01,2013-05-07 20:11:00,
2013-05-07 16:16:00,69.6,52.7,30.05,SSE,167,7.0,15.0,55,0.00,,---,0.00,VWS V14.01,2013-05-07 20:16:00,
2013-05-07 16:21:00,69.0,54.1,30.05,SE,141,7.0,15.0,59,0.00,,---,0.00,VWS V14.01,2013-05-07 20:21:00,
2013-05-07 16:26:00,68.8,54.8,30.05,South,191,3.0,15.0,61,0.00,,---,0.00,VWS V14.01,2013-05-07 20:26:00,
2013-05-07 16:31:00,68.5,55.0,30.05,ESE,104,2.0,15.0,62,0.00,,---,0.00,VWS V14.01,2013-05-07 20:31:00,
2013-05-07 16:36:00,68.4,55.8,30.05,ESE,108,8.0,10.0,64,0.00,,---,0.00,VWS V14.01,2013-05-07 20:36:00,
2013-05-07 16:41:00,67.9,56.1,30.05,SSW,203,3.0,11.0,66,0.00,,---,0.00,VWS V14.01,2013-05-07 20:41:00,
2013-05-07 16:46:00,67.7,56.8,30.05,East,87,4.0,11.0,68,0.00,,---,0.00,VWS V14.01,2013-05-07 20:46:00,
2013-05-07 16:51:00,67.6,56.7,30.05,South,174,6.0,11.0,68,0.00,,---,0.00,VWS V14.01,2013-05-07 20:51:00,
2013-05-07 16:56:00,67.7,57.2,30.05,SE,135,3.0,11.0,69,0.00,,---,0.00,VWS V14.01,2013-05-07 20:56:00,
2013-05-07 17:01:00,67.8,56.9,30.05,SE,138,3.0,11.0,68,0.00,,---,0.00,VWS V14.01,2013-05-07 21:01:00,
2013-05-07 17:06:00,68.1,57.2,30.05,SSE,166,1.0,8.0,68,0.00,,---,0.00,VWS V14.01,2013-05-07 21:06:00,
2013-05-07 17:11:00,68.2,56.8,30.05,SW,226,1.0,12.0,67,0.00,,---,0.00,VWS V14.01,2013-05-07 21:11:00,
2013-05-07 17:16:00,68.2,56.8,30.05,SE,135,3.0,12.0,67,0.00,,---,0.00,VWS V14.01,2013-05-07 21:16:00,
2013-05-07 17:21:00,68.4,56.6,30.05,East,100,3.0,12.0,66,0.00,,---,0.00,VWS V14.01,2013-05-07 21:21:00,
2013-05-07 17:26:00,68.2,56.4,30.05,SE,136,7.0,14.0,66,0.00,,---,0.00,VWS V14.01,2013-05-07 21:26:00,
2013-05-07 17:31:00,68.2,56.4,30.05,East,89,6.0,14.0,66,0.00,,---,0.00,VWS V14.01,2013-05-07 21:31:00,
2013-05-07 17:36:00,68.5,56.7,30.05,SSE,163,3.0,7.0,66,0.00,,---,0.00,VWS V14.01,2013-05-07 21:36:00,
2013-05-07 17:41:00,68.4,56.6,30.05,ESE,104,11.0,11.0,66,0.00,,---,0.00,VWS V14.01,2013-05-07 21:41:00,
2013-05-07 17:46:00,68.5,56.3,30.05,ESE,121,6.0,13.0,65,0.00,,---,0.00,VWS V14.01,2013-05-07 21:46:00,
2013-05-07 17:51:00,68.5,56.7,30.05,ESE,117,6.0,13.0,66,0.00,,---,0.00,VWS V14.01,2013-05-07 21:51:00,
2013-05-07 17:56:00,68.3,56.1,30.05,ESE,122,7.0,13.0,65,0.00,,---,0.00,VWS V14.01,2013-05-07 21:56:00,
2013-05-07 18:01:00,68.0,56.2,30.04,SE,144,6.0,17.0,66,0.00,,---,0.00,VWS V14.01,2013-05-07 22:01:00,
2013-05-07 18:06:00,68.0,56.2,30.04,ENE,70,5.0,12.0,66,0.00,,---,0.00,VWS V14.01,2013-05-07 22:06:00,
2013-05-07 18:11:00,68.5,56.7,30.04,SE,127,4.0,12.0,66,0.00,,---,0.00,VWS V14.01,2013-05-07 22:11:00,
2013-05-07 18:16:00,68.6,56.8,30.04,ESE,106,7.0,14.0,66,0.00,,---,0.00,VWS V14.01,2013-05-07 22:16:00,
2013-05-07 18:21:00,68.3,56.1,30.04,SE,136,2.0,16.0,65,0.00,,---,0.00,VWS V14.01,2013-05-07 22:21:00,
2013-05-07 18:26:00,67.9,56.1,30.05,ESE,114,15.0,16.0,66,0.00,,---,0.00,VWS V14.01,2013-05-07 22:26:00,
2013-05-07 18:31:00,67.6,56.3,30.05,SE,124,8.0,16.0,67,0.00,,---,0.00,VWS V14.01,2013-05-07 22:31:00,
2013-05-07 18:36:00,67.5,56.6,30.05,East,94,4.0,11.0,68,0.00,,---,0.00,VWS V14.01,2013-05-07 22:36:00,
2013-05-07 18:41:00,67.4,56.5,30.05,ESE,108,4.0,11.0,68,0.00,,---,0.00,VWS V14.01,2013-05-07 22:41:00,
2013-05-07 18:46:00,67.1,56.2,30.05,ESE,102,4.0,11.0,68,0.00,,---,0.00,VWS V14.01,2013-05-07 22:46:00,
2013-05-07 18:51:00,66.9,56.0,30.05,ENE,60,2.0,11.0,68,0.00,,---,0.00,VWS V14.01,2013-05-07 22:51:00,
2013-05-07 18:56:00,66.7,56.2,30.05,ESE,108,6.0,11.0,69,0.00,,---,0.00,VWS V14.01,2013-05-07 22:56:00,
2013-05-07 19:02:00,66.5,56.0,30.05,East,79,5.0,12.0,69,0.00,,---,0.00,VWS V14.01,2013-05-07 23:02:00,
2013-05-07 19:07:00,66.3,55.8,30.05,SE,132,3.0,10.0,69,0.00,,---,0.00,VWS V14.01,2013-05-07 23:07:00,
2013-05-07 19:12:00,66.1,56.0,30.05,East,101,5.0,10.0,70,0.00,,---,0.00,VWS V14.01,2013-05-07 23:12:00,
2013-05-07 19:17:00,65.9,55.8,30.05,East,94,3.0,10.0,70,0.00,,---,0.00,VWS V14.01,2013-05-07 23:17:00,
2013-05-07 19:22:00,65.6,56.0,30.05,ENE,74,4.0,16.0,71,0.00,,---,0.00,VWS V14.01,2013-05-07 23:22:00,
2013-05-07 19:27:00,65.4,56.2,30.06,ESE,103,6.0,16.0,72,0.00,,---,0.00,VWS V14.01,2013-05-07 23:27:00,
2013-05-07 19:32:00,65.3,56.0,30.05,ESE,114,4.0,16.0,72,0.00,,---,0.00,VWS V14.01,2013-05-07 23:32:00,
2013-05-07 19:37:00,65.1,55.9,30.06,East,82,6.0,9.0,72,0.00,,---,0.00,VWS V14.01,2013-05-07 23:37:00,
2013-05-07 19:42:00,65.0,56.2,30.06,ESE,122,4.0,9.0,73,0.00,,---,0.00,VWS V14.01,2013-05-07 23:42:00,
2013-05-07 19:47:00,64.9,56.0,30.06,ENE,68,1.0,9.0,73,0.00,,---,0.00,VWS V14.01,2013-05-07 23:47:00,
2013-05-07 19:52:00,64.8,56.3,30.05,ESE,117,1.0,9.0,74,0.00,,---,0.00,VWS V14.01,2013-05-07 23:52:00,
2013-05-07 19:57:00,64.7,56.2,30.05,East,94,3.0,9.0,74,0.00,,---,0.00,VWS V14.01,2013-05-07 23:57:00,
2013-05-07 20:02:00,64.5,56.0,30.05,NNW,336,1.0,9.0,74,0.00,,---,0.00,VWS V14.01,2013-05-08 00:02:00,
2013-05-07 20:07:00,64.3,56.2,30.05,SE,141,2.0,8.0,75,0.00,,---,0.00,VWS V14.01,2013-05-08 00:07:00,
2013-05-07 20:12:00,64.2,56.5,30.05,East,98,3.0,9.0,76,0.00,,---,0.00,VWS V14.01,2013-05-08 00:12:00,
2013-05-07 20:17:00,64.1,56.4,30.06,ESE,122,2.0,9.0,76,0.00,,---,0.00,VWS V14.01,2013-05-08 00:17:00,
2013-05-07 20:22:00,63.9,56.6,30.06,SSE,147,1.0,10.0,77,0.00,,---,0.00,VWS V14.01,2013-05-08 00:22:00,
2013-05-07 20:27:00,63.9,56.6,30.06,SE,124,8.0,10.0,77,0.00,,---,0.00,VWS V14.01,2013-05-08 00:27:00,
2013-05-07 20:32:00,63.9,56.6,30.06,SE,125,2.0,10.0,77,0.00,,---,0.00,VWS V14.01,2013-05-08 00:32:00,
2013-05-07 20:37:00,63.8,56.5,30.06,East,99,4.0,7.0,77,0.00,,---,0.00,VWS V14.01,2013-05-08 00:37:00,
2013-05-07 20:42:00,63.8,56.5,30.06,SE,127,4.0,7.0,77,0.00,,---,0.00,VWS V14.01,2013-05-08 00:42:00,
2013-05-07 20:47:00,63.7,56.4,30.06,ENE,74,2.0,7.0,77,0.00,,---,0.00,VWS V14.01,2013-05-08 00:47:00,
2013-05-07 20:52:00,63.6,56.3,30.06,ESE,104,2.0,7.0,77,0.00,,---,0.00,VWS V14.01,2013-05-08 00:52:00,
2013-05-07 20:57:00,63.6,56.3,30.07,NE,56,7.0,8.0,77,0.00,,---,0.00,VWS V14.01,2013-05-08 00:57:00,
2013-05-07 21:02:00,63.6,56.3,30.07,East,81,2.0,8.0,77,0.00,,---,0.00,VWS V14.01,2013-05-08 01:02:00,
2013-05-07 21:07:00,63.5,56.2,30.07,ENE,64,2.0,7.0,77,0.00,,---,0.00,VWS V14.01,2013-05-08 01:07:00,
2013-05-07 21:12:00,63.4,56.1,30.07,SE,129,7.0,9.0,77,0.00,,---,0.00,VWS V14.01,2013-05-08 01:12:00,
2013-05-07 21:17:00,63.3,56.0,30.07,East,89,4.0,9.0,77,0.00,,---,0.00,VWS V14.01,2013-05-08 01:17:00,
2013-05-07 21:22:00,63.1,56.1,30.07,East,99,4.0,9.0,78,0.00,,---,0.00,VWS V14.01,2013-05-08 01:22:00,
2013-05-07 21:27:00,62.9,55.9,30.07,ESE,102,8.0,11.0,78,0.00,,---,0.00,VWS V14.01,2013-05-08 01:27:00,
2013-05-07 21:32:00,62.7,56.1,30.08,SE,126,7.0,11.0,79,0.00,,---,0.00,VWS V14.01,2013-05-08 01:32:00,
2013-05-07 21:37:00,62.5,55.9,30.07,SE,144,2.0,7.0,79,0.00,,---,0.00,VWS V14.01,2013-05-08 01:37:00,
2013-05-07 21:42:00,62.3,56.1,30.07,SE,129,6.0,12.0,80,0.00,,---,0.00,VWS V14.01,2013-05-08 01:42:00,
2013-05-07 21:47:00,62.2,56.0,30.07,ESE,105,3.0,12.0,80,0.00,,---,0.00,VWS V14.01,2013-05-08 01:47:00,
2013-05-07 21:52:00,62.0,56.1,30.07,ENE,62,4.0,12.0,81,0.00,,---,0.00,VWS V14.01,2013-05-08 01:52:00,
2013-05-07 21:57:00,62.0,56.1,30.08,ESE,117,1.0,12.0,81,0.00,,---,0.00,VWS V14.01,2013-05-08 01:57:00,
2013-05-07 22:02:00,61.9,56.3,30.08,ENE,62,4.0,12.0,82,0.00,,---,0.00,VWS V14.01,2013-05-08 02:02:00,
2013-05-07 22:07:00,61.8,56.2,30.08,SE,138,8.0,10.0,82,0.00,,---,0.00,VWS V14.01,2013-05-08 02:07:00,
2013-05-07 22:12:00,61.7,56.2,30.08,ENE,65,0.0,11.0,82,0.00,,---,0.00,VWS V14.01,2013-05-08 02:12:00,
2013-05-07 22:17:00,61.6,56.1,30.08,South,174,1.0,11.0,82,0.00,,---,0.00,VWS V14.01,2013-05-08 02:17:00,
2013-05-07 22:22:00,61.5,56.3,30.08,ESE,114,5.0,12.0,83,0.00,,---,0.00,VWS V14.01,2013-05-08 02:22:00,
2013-05-07 22:27:00,61.4,56.2,30.08,ESE,102,1.0,12.0,83,0.00,,---,0.00,VWS V14.01,2013-05-08 02:27:00,
2013-05-07 22:32:00,61.3,56.1,30.07,SE,127,2.0,12.0,83,0.00,,---,0.00,VWS V14.01,2013-05-08 02:32:00,
2013-05-07 22:37:00,61.3,56.4,30.07,ENE,63,3.0,9.0,84,0.00,,---,0.00,VWS V14.01,2013-05-08 02:37:00,
2013-05-07 22:42:00,61.2,56.3,30.07,ENE,75,7.0,10.0,84,0.00,,---,0.00,VWS V14.01,2013-05-08 02:42:00,
2013-05-07 22:47:00,61.2,56.3,30.07,East,101,1.0,10.0,84,0.00,,---,0.00,VWS V14.01,2013-05-08 02:47:00,
2013-05-07 22:52:00,61.2,56.3,30.07,ESE,106,3.0,11.0,84,0.00,,---,0.00,VWS V14.01,2013-05-08 02:52:00,
2013-05-07 22:57:00,61.2,56.3,30.07,ENE,78,0.0,11.0,84,0.00,,---,0.00,VWS V14.01,2013-05-08 02:57:00,
2013-05-07 23:02:00,61.1,56.2,30.07,ENE,75,3.0,11.0,84,0.00,,---,0.00,VWS V14.01,2013-05-08 03:02:00,
2013-05-07 23:07:00,61.0,56.1,30.07,ENE,72,0.0,9.0,84,0.00,,---,0.00,VWS V14.01,2013-05-08 03:07:00,
2013-05-07 23:12:00,60.9,56.0,30.07,ESE,114,6.0,10.0,84,0.00,,---,0.00,VWS V14.01,2013-05-08 03:12:00,
2013-05-07 23:17:00,60.9,56.0,30.07,SE,141,7.0,10.0,84,0.00,,---,0.00,VWS V14.01,2013-05-08 03:17:00,
2013-05-07 23:22:00,60.8,55.9,30.07,ESE,107,5.0,10.0,84,0.00,,---,0.00,VWS V14.01,2013-05-08 03:22:00,
2013-05-07 23:28:00,60.7,56.2,30.07,East,100,5.0,10.0,85,0.00,,---,0.00,VWS V14.01,2013-05-08 03:28:00,
2013-05-07 23:33:00,60.5,56.0,30.07,SE,138,0.0,10.0,85,0.00,,---,0.00,VWS V14.01,2013-05-08 03:33:00,
2013-05-07 23:38:00,60.3,56.1,30.07,SE,130,2.0,7.0,86,0.00,,---,0.00,VWS V14.01,2013-05-08 03:38:00,
2013-05-07 23:43:00,60.2,56.0,30.07,ENE,67,5.0,10.0,86,0.00,,---,0.00,VWS V14.01,2013-05-08 03:43:00,
2013-05-07 23:48:00,60.1,55.9,30.07,East,91,4.0,10.0,86,0.00,,---,0.00,VWS V14.01,2013-05-08 03:48:00,
2013-05-07 23:53:00,60.0,55.8,30.07,East,97,1.0,10.0,86,0.00,,---,0.00,VWS V14.01,2013-05-08 03:53:00,
2013-05-07 23:58:00,60.0,55.8,30.06,NE,45,2.0,10.0,86,0.00,,---,0.00,VWS V14.01,2013-05-08 03:58:00,